Home > Weather > Kuwait City > Past weeks

Flag for Kuwait Past Weather in Kuwait City, Kuwait — Yesterday and Last 2 Weeks

Now
91 °F

Clear.


Feels Like: 89 °F
Forecast: 93 / 110 °F
Wind: 3 mph from Southeast

Location: Kuwait International Airport

Current Time: Jun 26, 2016 at 4:10:50 AM

Latest Report: Jun 26, 2016 at 3:00 AM


Visibility: 10 mi

Pressure: 29.50 "Hg

Humidity: 26%

Dew Point: 52 °F

Location of Kuwait CityLocation

Past Weather in Kuwait City — Graph

°F

Kuwait City Temperature Yesterday

Maximum temperature yesterday: 117 °F (at 12:00 PM)
Minimum temperature yesterday: 88 °F (at 5:00 AM)
Average temperature yesterday: 102 °F

High & Low Weather Summary for the Past Weeks

 TemperatureHumidityPressure
High118 °F (Jun 24, 1:00 PM)33% (Jun 24, 7:00 PM)29.77 "Hg (Jun 24, 7:00 PM)
Low75 °F (Jun 14, 5:00 AM)5% (Jun 14, 2:00 PM)29.42 "Hg (Jun 24, 3:00 PM)
Average100 °F14%29.59 "Hg
* Reported Jun 11 3:00 AM — Jun 26 3:00 AM, Kuwait City, Weather by CustomWeather, © 2016

Note: Actual official high and low records may vary slightly from our data, if they occured in-between our weather recording intervals... More about our weather records

Advertising

Kuwait City Weather History for the Previous 24 Hours

Scroll right to see more
 ConditionsComfort  
Time TempWeatherWind HumidityBarometerVisibility
3:00 AM
Sun, Jun 26
91 °FClear.3 mph26%29.50 "Hg10 mi
2:00 AM93 °FClear.3 mph24%29.50 "Hg10 mi
1:00 AM93 °FClear.5 mph28%29.50 "Hg10 mi
12:00 AM90 °FClear.5 mph29%29.50 "Hg10 mi
11:00 PM
Sat, Jun 25
91 °FClear.6 mph30%29.50 "Hg10 mi
10:00 PM93 °FClear.3 mph28%29.53 "Hg10 mi
9:00 PM97 °FClear.3 mph27%29.50 "Hg10 mi
8:00 PM99 °FClear.5 mph25%29.50 "Hg10 mi
7:00 PM104 °FClear.8 mph19%29.47 "Hg10 mi
6:00 PM106 °FSunny.13 mph20%29.47 "Hg10 mi
5:00 PM109 °FSunny.13 mph16%29.45 "Hg10 mi
4:00 PM111 °FSunny.12 mph13%29.47 "Hg10 mi
3:00 PM113 °FSunny.10 mph12%29.47 "Hg10 mi
2:00 PM115 °FSunny.7 mph11%29.47 "Hg10 mi
1:00 PM115 °FSunny.7 mph12%29.47 "Hg10 mi
12:00 PM117 °FSunny.12 mph8%29.50 "Hg10 mi
11:00 AM115 °FSunny.9 mph10%29.50 "Hg10 mi
10:00 AM111 °FSunny.10 mph11%29.50 "Hg10 mi
9:00 AM108 °FSunny.8 mph13%29.50 "Hg10 mi
8:00 AM104 °FSunny.3 mph14%29.50 "Hg4 mi
7:00 AM99 °FSunny.3 mph15%29.50 "Hg4 mi
6:00 AM91 °FSunny.No wind17%29.50 "Hg10 mi
5:00 AM88 °FSunny.6 mph19%29.47 "Hg10 mi
4:00 AM90 °FClear.5 mph18%29.47 "Hg10 mi
Weather by CustomWeather, © 2016

See weather overviewHow to use our weather pages